Current weather by "City, St" or "zip code"  
 
Advertise Here

Current Conditions: Hermiston, Hermiston Municipal Airport, OR

Fair


29.0 F

Last Updated on Jan 18 2021, 1:53 am PST
Humidity: 85%
Wind Speed: SE 3.5 mph
Barometer 30.45 in
Dewpoint: 25.0 F
Visibility: 10.00 mi
Precip: --
Heat Index: NA
Wind Chill: NA
Current conditions at:

Hermiston, Hermiston Municipal Airport, OR (KHRI)

Lat: 45.82583 Lon: 119.26111

Local Radar Image active severe weather and emergency alerts image image weather storm and storm spotter reports image weather observation monitoring service image
Local
Radar
Active
Alerts
Storm Reports Obs
Monitoring

Sign-up For Email & Text Message Weather Alert Notification Services


Advertise Here

Observation History for Hermiston, Hermiston Municipal Airport, OR


Time Wind
(mph)
Vis
(mi)
Weather Precip (in) Temperature (F) Relative
Humidity
Wind
Chill
(F)
Heat
Index
(F)
Pressure
Air Dwpt altimeter
(in)
sea level
(mb)
Rmks
1:53 am PST SE 3.5 10.00 Fair -- 29.0 25.0 85% NA NA 30.45 1031.5
12:53 am PST N 0.0 10.00 Fair -- 30.0 27.0 88% NA NA 30.45 1031.4
11:53 pm PST N 0.0 10.00 Fair -- 30.0 27.0 88% NA NA 30.45 1031.4
10:53 pm PST N 0.0 10.00 Fair -- 32.0 28.9 88% NA NA 30.44 1031.1
9:53 pm PST SW 4.6 10.00 Fair -- 34.0 30.0 85% 30 NA 30.42 1030.4
8:53 pm PST SE 3.5 10.00 Fair -- 33.0 28.9 85% NA NA 30.40 1029.9
7:53 pm PST SW 4.6 10.00 Fair -- 40.0 33.1 77% 37 NA 30.38 1029.3
6:53 pm PST SW 8.1 10.00 Fair -- 41.0 35.1 79% 36 NA 30.37 1028.8
5:53 pm PST SW 8.1 10.00 Fair -- 45.0 37.9 77% 41 NA 30.37 1028.7
4:53 pm PST N 0.0 10.00 Fair -- 46.0 39.9 79% NA NA 30.36 1028.5
3:53 pm PST NE 4.6 10.00 Fair -- 51.0 42.1 71% 50 NA 30.36 1028.2
2:53 pm PST W 8.1 10.00 Fair -- 56.0 39.9 55% 54 NA 30.35 1028.0
1:53 pm PST W 13.8 10.00 Fair -- 55.0 41.0 59% 51 NA 30.34 1027.7
12:53 pm PST 6.9 10.00 Fair Trace 54.0 42.1 64% 52 NA 30.36 1028.2
11:53 am PST W 11.5 10.00 Light Rain Trace 52.0 41.0 66% 48 NA 30.36 1028.2
10:53 am PST W 4.6 10.00 Fair -- 49.0 39.9 71% 47 NA 30.35 1028.1
9:53 am PST N 0.0 7.00 Fair -- 45.0 37.9 77% NA NA 30.34 1027.7
8:53 am PST S 6.9 4.00 Fog/Mist -- 40.0 37.0 89% 35 NA 30.31 1026.9
7:53 am PST N 0.0 4.00 Fog/Mist -- 40.0 36.0 86% NA NA 30.32 1027.0
6:53 am PST SE 5.8 4.00 Fog/Mist -- 39.0 36.0 89% 35 NA 30.30 1026.4
5:53 am PST S 3.5 2.50 Fog/Mist Trace 38.0 36.0 93% NA NA 30.31 1026.7
4:53 am PST W 3.5 2.50 Fog/Mist -- 38.0 36.0 93% NA NA 30.32 1027.0
3:53 am PST S 5.8 2.50 Fog/Mist -- 37.0 35.1 93% 32 NA 30.31 1026.7
2:53 am PST S 3.5 3.00 Fog/Mist -- 37.0 35.1 93% NA NA 30.32 1027.0

Regional Weather Observation


Richland Airport, WA (KRLD)

Fog/Mist
29.0 F

Tri-Cities Airport, WA (KPSC)

A Few Clouds with Haze
26.0 F

Sunnyside Municipal Airport, WA (K1S5)

Fog/Mist
29.0 F

Hanford, WA (KHMS)

Partly Cloudy
61.0 F

Eastern Oregon Regional Airport at Pendleton, OR (KPDT)

Fair
36.0 F

Walla Walla Regional Airport, WA (KALW)

A Few Clouds
37.0 F